• en Belgique
  • Liste des pays
  • À 7 jours
  • Température de l'eau
  • Carte satellitaire
  • Carte météo
  • Widgets météo
  • user-avatar
    Se connecter

    Météo par heure à Vanadzor

    Ce jour, 24 Juin, Dimanche

    Heure Température Précipitation Vent Pression Humidité
    00:00 +14°C° 0,2 mm 2 m/s 635 mmHg 86%
    01:00 +13°C° 0,1 mm 2 m/s 635 mmHg 86%
    02:00 +13°C° 0,1 mm 2 m/s 635 mmHg 86%
    03:00 +13°C° 0 mm 2 m/s 635 mmHg 87%
    04:00 +14°C° 0 mm 1 m/s 635 mmHg 86%
    05:00 +15°C° 0 mm 1 m/s 635 mmHg 85%
    06:00 +15°C° 0 mm 1 m/s 636 mmHg 84%
    07:00 +18°C° 0 mm 1 m/s 636 mmHg 78%
    08:00 +20°C° 0 mm 1 m/s 636 mmHg 72%
    09:00 +22°C° 0 mm 1 m/s 637 mmHg 67%
    10:00 +23°C° 0,2 mm 1 m/s 637 mmHg 64%
    11:00 +24°C° 0,2 mm 2 m/s 637 mmHg 62%
    12:00 +25°C° 0,2 mm 2 m/s 637 mmHg 60%
    13:00 +25°C° 0,6 mm 2 m/s 637 mmHg 59%
    14:00 +25°C° 0,6 mm 2 m/s 637 mmHg 59%
    15:00 +25°C° 0,6 mm 2 m/s 637 mmHg 59%
    16:00 +25°C° 0,8 mm 2 m/s 637 mmHg 63%
    17:00 +24°C° 0,8 mm 2 m/s 637 mmHg 68%
    18:00 +23°C° 0,8 mm 2 m/s 637 mmHg 72%
    19:00 +20°C° 0,5 mm 2 m/s 637 mmHg 76%
    20:00 +18°C° 0,5 mm 2 m/s 636 mmHg 79%
    21:00 +16°C° 0,5 mm 2 m/s 636 mmHg 83%
    22:00 +16°C° 0,2 mm 2 m/s 636 mmHg 84%
    23:00 +16°C° 0,2 mm 2 m/s 636 mmHg 85%

    Demain, 25 Juin, Lundi

    Heure Température Précipitation Vent Pression Humidité
    00:00 +15°C° 0,2 mm 2 m/s 637 mmHg 86%
    01:00 +15°C° 0,1 mm 2 m/s 637 mmHg 87%
    02:00 +15°C° 0,1 mm 2 m/s 636 mmHg 88%
    03:00 +14°C° 0,1 mm 2 m/s 636 mmHg 89%
    04:00 +15°C° 0 mm 2 m/s 637 mmHg 88%
    05:00 +15°C° 0 mm 2 m/s 637 mmHg 87%
    06:00 +16°C° 0 mm 2 m/s 637 mmHg 86%
    07:00 +17°C° 0 mm 2 m/s 637 mmHg 80%
    08:00 +19°C° 0 mm 2 m/s 637 mmHg 73%
    09:00 +21°C° 0 mm 2 m/s 638 mmHg 67%
    10:00 +23°C° 0 mm 2 m/s 638 mmHg 65%
    11:00 +24°C° 0 mm 2 m/s 638 mmHg 62%
    12:00 +25°C° 0 mm 3 m/s 638 mmHg 60%
    13:00 +25°C° 0,1 mm 3 m/s 638 mmHg 60%
    14:00 +25°C° 0,1 mm 3 m/s 638 mmHg 60%
    15:00 +26°C° 0,1 mm 3 m/s 637 mmHg 59%
    16:00 +25°C° 0,3 mm 3 m/s 637 mmHg 63%
    17:00 +24°C° 0,3 mm 3 m/s 637 mmHg 67%
    18:00 +24°C° 0,3 mm 2 m/s 637 mmHg 71%
    19:00 +21°C° 0,2 mm 2 m/s 637 mmHg 72%
    20:00 +19°C° 0,2 mm 2 m/s 637 mmHg 74%
    21:00 +17°C° 0,2 mm 2 m/s 636 mmHg 76%
    22:00 +16°C° 0 mm 2 m/s 636 mmHg 76%
    23:00 +16°C° 0 mm 2 m/s 636 mmHg 75%

    Après-demain, 26 Juin, Mardi

    Heure Température Précipitation Vent Pression Humidité
    00:00 +16°C° 0 mm 2 m/s 636 mmHg 75%
    01:00 +15°C° 0 mm 2 m/s 636 mmHg 75%
    02:00 +15°C° 0 mm 2 m/s 636 mmHg 75%
    03:00 +15°C° 0 mm 2 m/s 636 mmHg 76%
    04:00 +15°C° 0 mm 2 m/s 636 mmHg 76%
    05:00 +16°C° 0 mm 2 m/s 636 mmHg 77%
    06:00 +16°C° 0 mm 2 m/s 636 mmHg 77%
    07:00 +18°C° 0 mm 2 m/s 636 mmHg 71%
    08:00 +20°C° 0 mm 2 m/s 637 mmHg 65%
    09:00 +23°C° 0 mm 2 m/s 637 mmHg 58%
    10:00 +24°C° 0 mm 2 m/s 637 mmHg 57%
    11:00 +25°C° 0 mm 2 m/s 637 mmHg 55%
    12:00 +26°C° 0 mm 2 m/s 637 mmHg 53%
    13:00 +26°C° 0 mm 2 m/s 637 mmHg 53%
    14:00 +27°C° 0 mm 2 m/s 637 mmHg 53%
    15:00 +27°C° 0 mm 2 m/s 636 mmHg 53%
    16:00 +26°C° 0 mm 2 m/s 636 mmHg 57%
    17:00 +26°C° 0 mm 2 m/s 636 mmHg 62%
    18:00 +25°C° 0 mm 2 m/s 636 mmHg 66%
    19:00 +23°C° 0 mm 2 m/s 636 mmHg 68%
    20:00 +20°C° 0 mm 2 m/s 635 mmHg 69%
    21:00 +18°C° 0 mm 2 m/s 635 mmHg 71%
    22:00 +17°C° 0 mm 2 m/s 635 mmHg 70%
    23:00 +17°C° 0 mm 2 m/s 635 mmHg 68%

    27 Juin, Mercredi

    Heure Température Précipitation Vent Pression Humidité
    00:00 +16°C° 0 mm 2 m/s 635 mmHg 66%
    01:00 +16°C° 0 mm 2 m/s 635 mmHg 67%
    02:00 +16°C° 0 mm 2 m/s 635 mmHg 67%
    03:00 +15°C° 0 mm 2 m/s 635 mmHg 68%
    04:00 +16°C° 0 mm 2 m/s 635 mmHg 69%
    05:00 +16°C° 0 mm 2 m/s 635 mmHg 70%
    06:00 +18°C° 0 mm 1 m/s 635 mmHg 71%
    07:00 +20°C° 0 mm 1 m/s 636 mmHg 65%
    08:00 +22°C° 0 mm 1 m/s 636 mmHg 59%
    09:00 +24°C° 0 mm 1 m/s 637 mmHg 53%
    10:00 +25°C° 0 mm 2 m/s 637 mmHg 51%
    11:00 +26°C° 0 mm 2 m/s 637 mmHg 50%
    12:00 +28°C° 0 mm 2 m/s 637 mmHg 49%
    13:00 +28°C° 0 mm 2 m/s 637 mmHg 49%
    14:00 +28°C° 0 mm 2 m/s 636 mmHg 49%
    15:00 +28°C° 0 mm 2 m/s 636 mmHg 50%
    16:00 +28°C° 0,1 mm 2 m/s 636 mmHg 55%
    17:00 +27°C° 0,1 mm 2 m/s 636 mmHg 59%
    18:00 +26°C° 0,1 mm 2 m/s 636 mmHg 64%
    19:00 +24°C° 0,1 mm 2 m/s 636 mmHg 67%
    20:00 +21°C° 0,1 mm 2 m/s 635 mmHg 69%
    21:00 +19°C° 0,1 mm 2 m/s 635 mmHg 72%
    22:00 +18°C° 0 mm 2 m/s 635 mmHg 69%
    23:00 +18°C° 0 mm 2 m/s 635 mmHg 67%

    28 Juin, Jeudi

    Heure Température Précipitation Vent Pression Humidité
    00:00 +17°C° 0 mm 2 m/s 636 mmHg 65%
    01:00 +17°C° 0 mm 2 m/s 635 mmHg 66%
    02:00 +17°C° 0 mm 2 m/s 635 mmHg 66%
    03:00 +16°C° 0 mm 2 m/s 635 mmHg 66%
    04:00 +17°C° 0 mm 2 m/s 636 mmHg 68%
    05:00 +17°C° 0 mm 2 m/s 636 mmHg 70%
    06:00 +18°C° 0 mm 2 m/s 636 mmHg 71%
    07:00 +20°C° 0 mm 2 m/s 637 mmHg 65%
    08:00 +23°C° 0 mm 2 m/s 637 mmHg 59%
    09:00 +25°C° 0 mm 2 m/s 638 mmHg 53%
    10:00 +26°C° 0 mm 2 m/s 638 mmHg 52%
    11:00 +26°C° 0 mm 2 m/s 638 mmHg 51%
    12:00 +27°C° 0 mm 2 m/s 638 mmHg 50%
    13:00 +28°C° 0 mm 3 m/s 638 mmHg 50%
    14:00 +28°C° 0 mm 3 m/s 637 mmHg 51%
    15:00 +28°C° 0 mm 3 m/s 637 mmHg 51%
    16:00 +27°C° 0 mm 3 m/s 637 mmHg 55%
    17:00 +27°C° 0 mm 3 m/s 637 mmHg 58%
    18:00 +26°C° 0 mm 2 m/s 637 mmHg 62%
    19:00 +24°C° 0 mm 2 m/s 637 mmHg 63%
    20:00 +21°C° 0 mm 2 m/s 636 mmHg 63%
    21:00 +18°C° 0 mm 2 m/s 636 mmHg 64%
    22:00 +18°C° 0 mm 2 m/s 636 mmHg 64%
    23:00 +17°C° 0 mm 2 m/s 636 mmHg 64%

    29 Juin, Vendredi

    Heure Température Précipitation Vent Pression Humidité
    00:00 +17°C° 0 mm 2 m/s 636 mmHg 64%
    01:00 +17°C° 0 mm 2 m/s 636 mmHg 64%
    02:00 +16°C° 0 mm 2 m/s 636 mmHg 65%
    03:00 +16°C° 0 mm 2 m/s 636 mmHg 65%
    04:00 +16°C° 0 mm 2 m/s 636 mmHg 66%
    05:00 +17°C° 0 mm 2 m/s 636 mmHg 68%
    06:00 +18°C° 0 mm 2 m/s 636 mmHg 69%
    07:00 +20°C° 0 mm 2 m/s 637 mmHg 63%
    08:00 +23°C° 0 mm 2 m/s 637 mmHg 58%
    09:00 +25°C° 0 mm 2 m/s 638 mmHg 52%
    10:00 +26°C° 0 mm 2 m/s 637 mmHg 50%
    11:00 +27°C° 0 mm 2 m/s 637 mmHg 49%
    12:00 +28°C° 0 mm 2 m/s 637 mmHg 48%
    13:00 +29°C° 0 mm 2 m/s 637 mmHg 48%
    14:00 +29°C° 0 mm 2 m/s 637 mmHg 49%
    15:00 +29°C° 0 mm 3 m/s 637 mmHg 49%
    16:00 +28°C° 0 mm 2 m/s 636 mmHg 53%
    17:00 +27°C° 0 mm 2 m/s 636 mmHg 58%
    18:00 +27°C° 0 mm 2 m/s 636 mmHg 62%
    19:00 +24°C° 0,1 mm 2 m/s 636 mmHg 64%
    20:00 +21°C° 0,1 mm 2 m/s 636 mmHg 66%
    21:00 +19°C° 0,1 mm 2 m/s 635 mmHg 68%
    22:00 +19°C° 0 mm 2 m/s 636 mmHg 65%
    23:00 +18°C° 0 mm 2 m/s 636 mmHg 63%
    Voir plus